Location: Casilda
(33.0440°S, 61.1680°W)
Time: 11:20:30
(UTC-03:00)

ISS - Pass Details

Date: 23 May 2020
Orbit: 417 x 420 km, 51.6° (Epoch: 25 May)

Event Time Altitude Azimuth Distance (km) Brightness Sun altitude
Exits shadow 05:33:39 18° 73° (ENE) 1,104 -0.9 -29.1°
Drops below altitude 10° 05:35:23 10° 101° (E) 1,515 -0.1 -28.7°
Sets 05:37:51 0° 118° (ESE) 2,388 0.9 -28.2°
